Starlink 34067

operational
NORAD ID: 64115 Int'l Des: 2025-110 Owner: SPXS Country: US Constellation: starlink
LEOCIRCULAR

About Starlink 34067

Description loading...

Live Position

Loading 3D Globe...

Upcoming Passes

Altitude History

Altitude vs Time

uPlot chart will show altitude changes over time

Two-Line Element Set

1 64115U 25110V 26094.73802366 .00005324 00000-0 19175-3 0 9992
2 64115 53.1599 265.5488 0001054 60.5963 299.5143 15.30199877 49879
Epoch: Apr 4, 2026 • Age: 15 hours

Current Status

Altitude 476.7 km
Velocity 7.63 km/s
Sub-Earth Point -1.72°S, 121.1°E
Launch Date May 23, 2025
Age 0.8 years
Type internet

Technical Details

Classification Payload
Mass 575.00 kg
Dry Mass 530.00 kg
Total Mass 575.00 kg
Length 0.30 m
Diameter 4.10 m
Span 29.00 m
Shape Box + pan
Manufacturer SPXS
Bus Type Starlink V2MO
Phase Status In Orbit
Owner/State SPXS/US

Large Constellations

Loading constellations...